Altoona, PA

1:22 AM EDT on May 23, 2018 (GMT -0400)
Altoona-Blair County

Weather History for KAOO - April, 2013

Change the Weather History Date:

Wednesday, April 3, 2013

  Actual Average Record
Temperature  
Mean Temperature 32 °F 44 °F  
Max Temperature 39 °F 54 °F 81 °F (1963)
Min Temperature 26 °F 34 °F 21 °F (1954)
Degree Days  
Heating Degree Days 34 21  
Month to date heating degree days 64  
Since 1 July heating degree days 5493  
Cooling Degree Days 0 0  
Month to date cooling degree days 0  
Year to date cooling degree days 1  
Moisture  
Dew Point 12 °F    
Average Humidity 46    
Maximum Humidity 61    
Minimum Humidity 34    
Precipitation  
Precipitation 0.00 in 0.11 in 1.06 in (1956)
Month to date precipitation 0.33  
Year to date precipitation 7.61  
Sea Level Pressure  
Sea Level Pressure 30.28 in    
Wind  
Wind Speed 7 mph (NW)    
Max Wind Speed 22 mph    
Max Gust Speed 31 mph    
Visibility 10 miles    
Events      
T = Trace of Precipitation, MM = Missing Value Source: NWS Daily Summary

Daily Weather History Graph

Daily Weather History Graph

Search for Another Location

Airport or City:

Astronomy

Apr. 03, 2013 Rise Set
Actual Time 6:53 AM EDT 7:40 PM EDT
Civil Twilight 6:25 AM EDT 8:07 PM EDT
Nautical Twilight 5:53 AM EDT 8:40 PM EDT
Astronomical Twilight 5:19 AM EDT 9:14 PM EDT
Moon 2:33 AM EDT (4/3) 12:49 PM EDT (4/3)
Length of Visible Light 13h 41m
Length of Day
12h 46m
Last Quarter, 45% of the Moon is Illuminated
Apr 3
Last Quarter
Apr 10
New
Apr 18
First Quarter
Apr 25
Full
May 2
Last Quarter

Hourly Weather History & Observations

Time (EDT) Temp. Windchill Dew Point Humidity Pressure Visibility Wind Dir Wind Speed Gust Speed Precip Events Conditions
12:53 AM 26.1 °F - 12.0 °F 55% 30.17 in 10.0 mi Calm Calm - N/A   Clear
1:53 AM 28.0 °F - 10.9 °F 49% 30.17 in 10.0 mi Calm Calm - N/A   Clear
2:53 AM 27.0 °F 23.0 °F 10.9 °F 51% 30.17 in 10.0 mi SSE 3.5 mph - N/A   Clear
3:53 AM 27.0 °F - 12.0 °F 53% 30.17 in 10.0 mi Calm Calm - N/A   Mostly Cloudy
4:53 AM 28.0 °F 20.8 °F 12.9 °F 53% 30.18 in 10.0 mi WNW 6.9 mph - N/A   Clear
5:53 AM 27.0 °F 19.5 °F 14.0 °F 58% 30.20 in 10.0 mi NW 6.9 mph - N/A   Clear
6:53 AM 26.1 °F - 12.9 °F 58% 30.22 in 10.0 mi Calm Calm - N/A   Clear
7:53 AM 28.0 °F - 16.0 °F 61% 30.25 in 10.0 mi Calm Calm - N/A   Clear
8:53 AM 30.0 °F 22.4 °F 17.1 °F 59% 30.25 in 10.0 mi WNW 8.1 mph - N/A   Clear
9:53 AM 32.0 °F 21.6 °F 12.9 °F 45% 30.25 in 10.0 mi WNW 15.0 mph - N/A   Partly Cloudy
10:53 AM 33.1 °F 24.4 °F 12.9 °F 43% 30.27 in 10.0 mi NW 11.5 mph 23.0 mph N/A   Scattered Clouds
11:53 AM 36.0 °F 26.7 °F 10.0 °F 34% 30.27 in 10.0 mi West 15.0 mph 23.0 mph N/A   Partly Cloudy
12:53 PM 37.0 °F 27.7 °F 10.9 °F 34% 30.27 in 10.0 mi NW 16.1 mph 31.1 mph N/A   Partly Cloudy
1:53 PM 36.0 °F 25.6 °F 10.0 °F 34% 30.27 in 10.0 mi NW 18.4 mph 27.6 mph N/A   Mostly Cloudy
2:53 PM 37.9 °F 27.3 °F 12.0 °F 35% 30.27 in 10.0 mi NW 21.9 mph 31.1 mph N/A   Overcast
3:53 PM 37.9 °F 28.2 °F 14.0 °F 38% 30.28 in 10.0 mi NW 18.4 mph 26.5 mph N/A   Mostly Cloudy
4:53 PM 35.1 °F 23.8 °F 16.0 °F 46% 30.31 in 10.0 mi NW 20.7 mph 27.6 mph N/A   Overcast
5:53 PM 32.0 °F 22.5 °F 17.1 °F 54% 30.36 in 9.0 mi WNW 12.7 mph 26.5 mph 0.00 in   Overcast
6:53 PM 34.0 °F 24.6 °F 8.1 °F 34% 30.37 in 10.0 mi NW 13.8 mph 23.0 mph N/A   Partly Cloudy
7:53 PM 32.0 °F 22.1 °F 8.1 °F 37% 30.39 in 10.0 mi NW 13.8 mph - N/A   Clear
8:53 PM 30.0 °F 22.4 °F 8.1 °F 40% 30.40 in 10.0 mi NNW 8.1 mph - N/A   Clear
9:53 PM 28.9 °F 18.6 °F 10.0 °F 45% 30.41 in 10.0 mi North 12.7 mph - N/A   Clear
10:53 PM 28.0 °F 20.8 °F 10.9 °F 49% 30.38 in 10.0 mi North 6.9 mph - N/A   Clear
11:53 PM 27.0 °F 21.6 °F 10.0 °F 49% 30.38 in 10.0 mi NW 4.6 mph - N/A   Clear